Hourly Data Report for October 05, 2017

All times are specified in Local Standard Time (LST). Add 1 hour to adjust for Daylight Saving Time where and when it is observed.

DEBERT
NOVA SCOTIA

45°25'00.000" N
63°28'00.000" W
37.50 m
8201390
71317
ZDB

Download Data

Hourly Data (October 2017)
Hourly Data Report for October 5, 2017
Temp Definition
°C
Dew Point Temp Definition
°C
Rel Hum Definition
%
Wind Dir Definition
10's deg

Wind Spd Definition
km/h
Visibility Definition
km
Stn Press Definition
kPa
Hmdx Definition


Wind Chill Definition


Weather Definition


TIME
00:00 12.3 10.2 87 21 10   100.96     LegendNANA
01:00 11.2 9.8 91 19 9   100.88     LegendNANA
02:00 10.3 9.4 94 18 3   100.83     LegendNANA
03:00 10.0 9.2 95 15 5   100.75     LegendNANA
04:00 10.5 9.4 93 15 3   100.77     LegendNANA
05:00 10.4 9.5 95 8 3   100.68     LegendNANA
06:00 10.6 9.9 96 2 7   100.71     LegendNANA
07:00 11.1 10.3 94   0   100.72     LegendNANA
08:00 14.9 13.9 94 28 5   100.74     LegendNANA
09:00 16.9 13.9 82 24 16   100.76     LegendNANA
10:00 17.7 14.1 79 25 23   100.79     LegendNANA
11:00 18.4 14.0 75 23 19   100.79     LegendNANA
12:00 18.6 13.3 72 25 23   100.75     LegendNANA
13:00 19.7 13.7 68 25 25   100.72     LegendNANA
14:00 19.5 12.3 63 24 26   100.70     LegendNANA
15:00 18.9 11.2 61 25 26   100.71     LegendNANA
16:00 18.4 11.4 64 25 19   100.72     LegendNANA
17:00 17.1 10.2 64 26 14   100.78     LegendNANA
18:00 15.4 10.5 73 28 11   100.79     LegendNANA
19:00 13.9 10.3 79 31 6   100.84     LegendNANA
20:00 11.2 8.8 85 27 3   100.89     LegendNANA
21:00 9.7 8.3 92 32 5   100.93     LegendNANA
22:00 8.6 7.2 91   0   100.99     LegendNANA
23:00 7.4 6.2 92 0 1   100.98     LegendNANA

Notes on Data Quality.

Legend

  • E = Estimated
  • M = Missing
  • NA = Not Available
  • ‡ = Partner data that is not subject to review by the National Climate Archives
Date modified: